Details From KCHA - Lovell Field
To KNQA - Millington Muni
Flight Number -
Tags decoded
Created
Modified
Stats Distance 230 nm / 426 km
Max Altitude 0 ft / 0 m
Waypoints 2
Social Downloads 0
Likes 0
Share VATSIM

Download

Looking for another format? Having issues loading an existing format? Contact us
Advertisement - Login to hide

Notes

Requested: KCHA KNQA

Route

KCHA KNQA

ID Type Via Altitude Latitude Longitude Leg Dist Tot Dist Heading (true) Name
O KCHA APT - 0 ft / 0 m 35.03565˚ -85.20349˚ - 0 nm - Lovell Field
O KNQA APT - 0 ft / 0 m 35.35664˚ -89.87043˚ 229 nm 229 nm 276° / 273° Millington Muni

Altitude Profile

Advertisement - Login to hide

Weather


0- 5 10 15 20 25 30 35+ Temperature / ° C

Clouds and Precipitation
Forecast for 2018-05-20 12:00 UTC. Updated 3 hours ago

Ground ~20,000 ft ~40,000 ft Winds

KCHA

Details ICAO KCHA (CHA)
Name Lovell Field
Region United States
Timezone America/New_York (UTC-4.0)
Stats Elevation 683 ft / 208 m (AMSL)
Location 35.035654° -85.203491°
Runways 2
Magnetic Variation 4.782° W

METAR

KCHA 201353Z VRB04KT 10SM FEW070 BKN200 25/20 A3014 RMK AO2 SLP199 T02500200

Decode

TAF

KCHA 201126Z 2012/2112 VRB03KT P6SM SCT200 FM201600 18005KT P6SM BKN050

Decode

Departure Runways

ID Width Length Bearing (true) Bearing (mag) Surface Threshold Offset Overrun Length
02 151 ft / 46 m 7,416 ft / 2,260 m 16.63° 21.41° Asphalt 0 ft / 0 m 49 ft / 15 m
15 151 ft / 46 m 5,580 ft / 1,701 m 145.60° 150.38° Asphalt 105 ft / 32 m 0 ft / 0 m
20 151 ft / 46 m 7,416 ft / 2,260 m 196.63° 201.41° Asphalt 0 ft / 0 m 0 ft / 0 m
33 151 ft / 46 m 5,580 ft / 1,701 m 325.61° 330.39° Asphalt 574 ft / 175 m 0 ft / 0 m

KNQA

Details ICAO KNQA (NQA)
Name Millington Muni
Region United States
Timezone America/Chicago (UTC-5.0)
Stats Elevation 320 ft / 98 m (AMSL)
Location 35.356642° -89.870428°
Runways 1
Magnetic Variation 1.500° W

METAR

KNQA 201250Z 00000KT 10SM FEW250 23/20 A3005

Decode

TAF

Not found

Destination Runways

ID Width Length Bearing (true) Bearing (mag) Surface Threshold Offset Overrun Length
04 200 ft / 61 m 8,006 ft / 2,440 m 38.77° 40.27° Asphalt 0 ft / 0 m 259 ft / 79 m
22 200 ft / 61 m 8,006 ft / 2,440 m 218.77° 220.27° Asphalt 0 ft / 0 m 259 ft / 79 m

Approach Navaids

Runway Type Ident Frequency Range Bearing (true) Bearing (mag) Slope Elevation
22 Localiser INQA 109.75 MHz 18 nm / 33 km 218.76° 220.26° - 320 ft / 98 m (AMSL)
22 Glidescope INQA 109.75 MHz 10 nm / 19 km 218.77° 220.27° 3.00° 318 ft / 97 m (AMSL)
22 DME INQA 109.75 MHz 18 nm / 33 km - - - 320 ft / 98 m (AMSL)